Presure
150 166 170 152 169 192 198 187 179 178 192 200 170 193 201 193 187 191 191 189 171 167 174 171 172 164 168 166 169 171 172 158 149 159 158 162 163 159 152 139 170 194 166 181
139 159 150 195 191 196 197 195 191 187 196 190 169 195 187 197 199 191 179 185 171 171 175 180 168 172 169 166 159 167 170 159 169 156 155 160 167 156 162 164 167 178 155 168
147 189 187 203 164 200 196 193 185 198 200 176 185 199 177 176 190 173 195 190 179 174 179 170 172 171 168 165 158 160 165 162 161 158 154 155 158 162 164 159 152 179 197 192
203 205 202 215 199 199 199 182 188 196 188 192 182 189 175 190 193 201 197 178 168 184 179 167 172 164 164 151 168 170 163 145 157 164 161 154 163 150 154 168 193 140 180 181
166 206 198 193 191 191 192 179 181 187 188 193 174 207 190 204 199 175 174 183 182 185 178 170 175 168 155 167 167 163 171 150 170 148 168 154 163 162 174 174 142 186 171 181
187 145 191 193 191 194 182 196 185 192 173 186 183 206 192 192 186 186 170 180 181 181 188 175 177 155 162 169 170 172 162 159 156 156 160 161 169 176 155 172 167 190 185 175
203 197 195 197 191 183 196 187 184 181 189 170 177 194 191 191 191 187 182 171 174 178 166 170 189 162 161 162 169 175 166 162 159 163 173 155 176 176 169 182 181 189 181 170
185 170 164 219 205 190 177 186 174 177 194 180 167 194 181 190 197 188 171 167 161 182 161 169 154 160 153 151 170 153 152 166 173 172 168 179 182 180 178 191 190 187 183 203
165 181 191 199 185 185 172 168 175 183 187 187 186 182 199 192 177 181 188 176 186 166 165 158 166 165 178 182 162 168 172 163 178 177 168 185 160 181 179 175 185 183 177 211
182 181 194 178 188 180 181 174 180 184 174 182 172 182 196 186 184 178 183 183 190 176 169 171 175 175 180 172 173 172 163 158 183 178 175 181 171 207 190 191 184 184 197 203
193 192 192 184 176 174 174 180 177 174 187 179 183 193 183 187 184 182 187 141 192 183 182 179 174 159 160 174 153 181 159 170 182 183 174 179 197 204 207 204 207 198 221 241
190 196 186 185 183 176 184 181 187 190 180 187 175 205 171 196 186 189 189 198 195 189 188 183 159 167 180 177 189 187 181 171 190 191 191 203 207 201 212 182 235 223 244 290
177 193 187 180 171 183 177 172 176 171 174 182 176 177 170 184 178 186 184 186 197 198 187 164 163 171 155 192 110 179 169 207 199 208 198 214 196 201 212 221 224 239 288 283
175 180 189 178 184 184 179 179 175 194 196 184 191 193 170 175 191 201 191 199 189 187 156 152 188 184 193 181 204 180 199 204 196 213 217 212 200 211 224 244 232 252 298 307
183 192 188 177 187 187 184 193 187 168 179 186 181 184 178 182 196 184 213 183 167 186 179 177 175 193 172 200 186 193 187 215 211 211 220 201 203 232 221 218 245 309 307 332
185 190 185 186 184 186 183 178 177 179 181 184 177 185 170 187 186 181 185 192 171 205 202 181 198 191 205 179 190 189 207 220 212 225 204 223 207 233 238 249 302 308 382 377
180 182 176 183 181 186 172 178 177 171 166 169 174 184 185 192 184 174 187 187 195 177 193 196 176 191 191 199 189 202 215 213 208 224 209 205 238 240 240 261 333 380 366 361
178 177 178 181 176 179 171 162 177 168 169 171 184 173 179 179 173 186 184 192 193 185 185 174 191 182 188 190 191 210 206 206 226 211 208 235 234 232 257 371 376 362 353 404
178 177 175 173 169 175 174 182 175 174 174 186 176 180 180 170 174 194 202 189 178 175 183 200 186 199 173 198 205 207 220 222 230 212 237 229 241 248 366 372 362 350 405 402
180 181 178 182 177 183 176 169 179 183 174 183 187 184 162 195 185 195 171 198 188 187 203 194 157 190 197 214 211 217 225 218 209 234 230 244 236 259 371 357 349 402 386 395
190 185 185 188 188 191 182 173 179 188 181 184 180 174 187 185 197 183 163 189 191 189 198 193 193 203 206 210 192 200 225 220 234 232 229 235 251 315 350 348 406 388 370 360
184 183 192 200 199 195 189 186 186 180 174 181 172 181 192 183 182 176 182 193 199 199 206 196 211 207 221 221 195 224 228 232 235 227 245 242 259 346 339 375 404 380 362 349
177 192 191 196 188 194 195 187 188 161 190 167 181 178 171 188 188 182 196 201 198 203 210 216 190 214 208 198 234 233 224 239 230 246 235 247 347 336 336 398 378 374 374 369
193 188 187 186 173 197 197 197 197 189 197 187 198 190 186 190 179 198 199 211 196 196 212 213 213 209 226 226 216 215 238 234 237 252 255 269 335 330 331 379 377 372 376 357
193 182 190 188 193 192 181 207 185 186 187 192 191 190 196 195 200 210 195 211 197 202 216 211 212 224 226 211 211 238 239 228 252 230 252 335 329 327 325 327 369 358 346 342
176 187 180 201 191 200 190 182 189 202 194 192 191 190 188 202 183 195 216 209 216 217 211 221 212 227 224 222 238 243 225 250 243 261 334 322 323 320 307 313 338 358 343 333
Wind_Speed
61 71 75 70 57 61 52 53 55 57 46 40 44 48 48 40 36 39 30 26 39 49 49 42 44 46 39 43 44 42 43 53 64 55 58 54 58 63 69 47 77 62 79 74
64 71 69 59 57 55 54 51 49 55 47 36 45 41 50 46 35 34 39 33 41 46 50 45 43 42 40 47 53 47 48 56 50 61 66 63 60 73 70 78 81 73 72 84
63 64 70 56 60 51 53 50 53 46 47 44 37 36 45 50 43 38 34 30 37 42 42 47 42 41 43 44 56 56 52 56 61 63 69 71 71 73 77 81 76 89 78 76
59 59 59 55 49 50 46 56 51 48 45 44 38 35 48 45 46 38 33 39 45 35 39 44 41 43 45 65 57 54 60 77 65 65 69 78 73 81 80 88 82 55 88 85
72 52 55 58 56 52 49 56 52 48 46 44 48 40 48 39 37 41 42 39 38 39 35 39 39 44 59 52 52 56 59 73 63 82 72 80 79 84 90 89 54 93 82 96
68 64 61 60 59 57 56 49 53 52 49 45 53 39 35 37 26 36 44 39 40 42 41 43 42 55 60 54 58 57 60 70 78 81 81 84 86 90 66 93 100 93 98 89
61 61 59 59 59 60 53 53 56 54 55 47 50 43 37 39 33 33 34 43 44 45 49 47 47 52 59 62 65 64 65 71 80 83 84 87 90 90 96 90 95 97 103 101
69 73 75 55 55 57 56 55 57 61 58 52 59 50 40 42 37 36 38 44 49 45 47 43 55 59 67 70 59 73 80 74 78 81 85 88 89 91 95 94 97 99 100 115
76 63 64 55 58 60 60 58 65 59 60 59 62 57 53 45 43 44 50 52 52 43 45 55 59 63 65 67 62 65 71 75 80 83 80 89 92 91 99 105 104 106 109 114
70 69 62 65 60 65 63 64 63 64 62 61 62 59 55 53 54 50 57 57 56 47 52 57 64 64 69 65 66 70 77 82 83 82 87 90 98 100 99 100 107 114 117 118
67 61 59 65 67 71 67 66 68 68 68 66 65 61 62 61 61 62 65 39 59 60 65 66 63 67 66 65 83 81 86 81 87 92 90 90 102 106 108 109 113 99 114 120
71 61 62 65 67 73 71 70 70 68 63 63 61 52 61 60 60 67 67 63 68 68 71 71 67 64 72 80 88 85 84 86 97 93 94 105 107 104 114 95 128 117 126 124
78 66 66 70 73 72 74 68 64 61 65 65 62 58 58 63 65 67 56 59 67 71 67 61 66 69 67 87 37 81 86 102 98 106 96 113 103 108 120 119 121 128 135 127
80 76 71 75 76 75 79 80 68 72 69 70 75 70 63 62 79 73 65 70 64 64 65 73 77 78 85 81 94 84 100 106 91 113 117 107 107 117 128 147 125 152 133 127
85 76 76 80 80 80 79 77 76 60 74 74 75 82 74 79 84 65 88 56 54 82 70 70 75 92 79 97 84 94 89 120 114 113 116 106 110 142 126 125 152 139 132 133
84 81 81 83 84 82 79 78 74 75 78 78 80 86 77 88 88 70 74 89 68 97 100 81 96 90 105 84 89 93 127 128 116 127 108 132 113 149 151 147 145 138 91 85
88 84 87 86 89 87 60 79 76 66 66 73 81 91 94 96 89 68 94 90 97 66 102 95 72 91 92 106 91 129 132 125 112 130 115 113 151 149 139 146 128 87 86 85
91 90 91 92 90 84 69 62 81 72 73 83 94 87 92 85 62 95 94 99 106 90 85 90 99 95 102 101 108 130 123 113 135 117 117 152 144 131 172 97 84 85 84 69
94 92 94 89 82 85 82 90 88 84 89 98 91 95 92 69 86 107 110 88 73 80 84 113 95 118 97 120 127 129 133 138 142 121 151 140 151 154 94 81 82 82 62 57
101 101 100 100 95 96 92 82 96 100 85 99 103 103 67 106 97 104 67 110 102 100 116 113 85 99 116 135 130 136 142 127 118 148 144 156 137 168 75 78 79 58 52 43
107 105 104 103 104 101 99 84 97 101 94 100 99 91 106 103 109 85 72 106 106 100 116 104 101 122 125 128 102 115 142 126 151 144 135 144 156 126 77 76 56 48 44 41
108 106 105 107 108 102 98 97 96 91 77 97 82 95 111 106 93 86 95 112 120 118 127 105 133 129 145 146 105 137 137 150 147 130 158 152 176 71 74 63 45 43 42 41
96 112 109 109 101 106 106 97 101 77 110 70 89 82 72 109 106 92 122 126 121 130 131 135 97 137 120 111 148 146 144 157 137 162 134 153 65 68 69 49 44 39 36 32
113 109 106 105 76 114 110 113 111 107 114 101 111 114 104 111 86 126 124 133 110 113 139 140 138 123 150 146 118 118 158 141 153 160 158 163 62 63 63 50 40 35 28 25
116 99 113 108 112 105 82 113 85 87 102 116 110 98 112 117 127 135 103 139 115 120 142 131 129 147 148 112 113 159 156 129 169 113 163 58 59 56 56 57 42 36 30 24
96 108 87 115 112 117 106 80 98 118 107 114 112 105 89 128 81 109 140 137 140 139 126 143 123 154 143 135 159 167 120 165 140 172 53 61 54 52 55 53 48 38 33 31
Wind_Direction
282 279 279 289 279 282 285 287 288 290 287 282 291 295 292 282 282 277 273 257 265 274 281 278 279 283 289 285 289 298 300 291 297 295 298 299 302 301 302 300 302 297 302 294
278 281 284 282 282 283 284 281 278 287 282 288 288 287 288 289 282 273 277 265 269 271 279 285 286 292 288 294 286 296 298 292 297 292 297 299 300 299 301 300 301 301 301 298
279 277 283 278 281 276 276 276 283 281 278 289 289 294 280 286 288 282 273 264 261 276 282 284 290 293 294 292 288 292 296 294 294 296 298 297 300 301 299 298 300 301 297 293
278 277 277 275 276 273 271 282 282 277 289 288 293 290 280 281 280 277 276 265 272 275 276 280 294 291 293 289 296 295 293 302 296 302 297 295 298 300 303 298 303 303 297 294
277 277 280 283 279 280 278 286 284 283 287 291 292 286 283 286 285 278 276 281 280 283 281 283 294 291 287 292 292 289 293 292 303 300 302 301 297 298 302 301 302 299 301 294
278 275 275 270 279 281 283 271 282 281 289 295 287 302 296 286 281 280 282 290 290 293 295 286 296 280 289 289 288 293 287 292 287 292 296 297 301 303 305 299 298 301 298 297
266 270 274 273 271 278 271 283 287 292 288 289 296 299 288 291 281 282 287 284 290 298 294 293 299 290 288 292 301 309 306 300 298 303 304 305 302 299 296 301 297 300 292 294
273 274 276 260 265 275 284 284 289 289 291 294 287 297 293 291 297 292 276 280 282 296 294 302 287 288 285 288 304 288 290 303 308 304 303 303 303 301 298 300 297 297 295 302
270 274 276 276 278 279 285 288 283 295 291 293 295 294 289 299 296 298 298 289 298 287 297 288 291 288 300 305 290 299 300 292 303 303 300 305 301 297 298 293 296 296 302 302
271 274 272 276 274 281 281 286 291 290 291 295 292 295 303 303 301 297 298 296 297 298 290 292 297 300 303 300 303 304 294 290 305 301 301 300 295 314 303 298 291 291 295 292
269 273 268 274 280 279 285 285 286 286 287 297 301 300 301 294 292 292 288 289 296 295 296 298 297 286 289 307 286 305 295 295 307 308 304 302 310 314 314 306 302 303 301 309
272 270 273 270 272 279 279 281 277 281 290 287 289 287 288 287 294 286 289 294 293 295 297 299 280 292 305 302 309 310 305 294 307 306 307 312 315 307 312 300 316 302 312 312
273 271 271 273 277 275 277 280 285 286 289 287 284 290 288 297 296 294 299 305 301 297 291 280 283 297 284 306 297 301 291 309 311 318 308 315 299 304 307 310 305 312 315 311
272 273 267 274 271 274 278 279 285 286 291 291 302 300 286 293 304 301 305 303 302 303 274 278 308 306 312 303 310 299 315 316 307 316 316 312 302 311 316 318 311 319 312 309
268 264 269 273 272 272 275 278 285 288 297 299 297 299 300 299 304 303 306 302 286 306 303 305 301 312 297 312 305 311 306 316 315 316 317 306 305 319 313 309 320 314 311 306
266 267 270 272 274 275 279 284 292 295 294 297 298 301 295 303 305 305 309 310 291 306 306 303 311 309 314 294 308 307 317 316 315 317 309 315 307 319 317 319 317 312 303 303
268 269 274 273 275 277 283 287 289 291 297 298 298 297 299 300 304 302 310 308 308 298 307 308 295 312 312 316 305 318 316 316 315 317 312 307 318 319 318 320 311 305 305 303
266 268 270 271 277 282 282 287 289 291 294 295 294 297 298 304 299 301 305 307 307 310 312 305 309 302 306 314 313 316 317 312 317 315 312 318 320 317 323 308 307 306 306 303
263 264 268 274 279 282 280 283 285 290 291 288 293 294 297 300 299 301 302 306 303 293 306 310 312 311 303 315 315 317 315 316 316 312 319 321 323 323 312 309 308 309 306 304
263 262 267 268 275 273 277 283 281 281 289 284 287 293 283 294 300 301 286 302 306 309 308 308 297 310 314 312 315 314 315 316 313 317 320 320 321 324 309 309 312 307 307 308
258 262 264 264 267 266 272 278 279 279 284 286 291 294 295 296 296 302 280 305 306 307 308 308 311 311 311 313 304 311 315 313 318 319 320 320 321 320 310 314 310 306 305 306
261 264 263 262 265 268 272 276 280 285 280 287 290 290 292 296 298 292 298 305 306 307 306 310 308 312 310 312 308 315 315 317 318 319 320 323 322 310 313 317 312 304 304 304
265 260 263 266 272 272 275 276 279 274 281 276 292 293 288 295 297 297 300 303 305 305 305 306 305 310 310 308 312 313 317 317 318 318 320 323 310 312 316 327 321 317 312 310
259 264 267 270 276 272 274 276 279 280 281 287 286 288 294 294 296 298 299 299 305 307 306 308 309 310 311 312 314 315 315 317 318 317 320 320 310 315 320 332 325 323 323 318
260 268 266 270 271 273 281 274 277 279 287 286 288 290 291 296 297 296 303 298 304 301 305 307 308 309 310 310 311 313 316 316 317 316 318 305 311 316 320 326 331 325 320 315
260 265 274 265 272 271 279 282 278 279 285 287 287 292 295 294 289 298 296 298 301 301 305 306 308 308 310 311 312 313 313 315 317 317 300 305 312 315 316 322 336 326 320 310